Location: Unspecified
(0.0000°N, 0.0000°E)
Time: 06:47:46
(UTC+00:00)

Transit 2A Rocket - Pass Details

Date: 13 December 2018
Orbit: 586 x 917 km, 66.7° (Epoch: 16 June)

Event Time Altitude Azimuth Distance (km) Brightness Sun altitude
Rises 19:10:46 0° 336° (NNW) 3,521 8.4 -17.5°
Reaches altitude 10° 19:13:17 10° 334° (NNW) 2,594 7.7 -18.1°
Maximum altitude 19:19:21 72° 251° (WSW) 957 5.6 -19.5°
Drops below altitude 10° 19:25:20 10° 167° (SSE) 2,554 7.8 -20.8°
Sets 19:27:48 0° 165° (SSE) 3,463 8.5 -21.4°
